[[{"header":{"parameterUnit":"m.s-1","parameterCategory":1,"la1":30.2991,"la2":30.254,"lo1":-89.0895,"lo2":-89.0444,"dy":0.0017,"dx":0.0017,"nx":28,"ny":28,"refTime":"2024-03-28T21:00:00:Z","depth":0,"parameterNumber":2,"parameterNumberName":"U-component_of_WINDS"},"data":[0,0,0,0,0,0,0,0,0,0,0,0,0,0,0,0,0,0,0,0,0,0,0,0,0,0,0,0,0,0,0,0,0,0,0,0,0,0,0,0,0,0,0,0,0,0,0,0,0,0,0,0,0,0,0,0,0,0,1.3727,1.3728,0,1.3818,1.3819,1.382,1.3831,1.383,1.3829,1.3828,1.3925,1.3929,1.3932,0,0,0,0,0,0,0,0,0,0,0,0,0,1.3566,1.3569,1.3727,1.3728,1.3729,1.3818,1.3819,1.3821,1.3831,1.383,1.3829,1.3828,1.3924,1.3928,1.3932,0,0,0,0,0,0,0,0,0,0,0,0,0,1.3644,1.3569,1.3726,1.3745,1.3747,1.3818,1.382,1.3821,1.3831,1.383,1.3829,1.3827,1.3923,1.3928,1.3933,1.3992,0,0,1.3949,1.3951,0,0,0,0,0,0,0,0,1.364,1.365,1.3741,1.3744,1.3747,1.3812,1.3798,1.3879,1.3832,1.38,1.3828,1.3827,1.3889,1.3897,1.3917,1.3997,1.4001,1.3949,1.3952,1.3954,1.3956,0,0,0,0,0,0,0,1.3634,1.3646,1.3763,1.3742,1.3746,1.375,1.376,1.3814,1.3851,1.3802,1.3803,1.3814,1.389,1.3912,1.3919,1.4003,1.3949,1.3954,1.3957,1.3959,1.4141,1.4143,0,0,0,0,0,0,1.3625,1.3642,1.376,1.3766,1.3689,1.3754,1.3765,1.3792,1.385,1.3858,1.3815,1.3814,1.3904,1.3913,1.3923,1.4,1.3954,1.3959,1.3962,1.4139,1.4141,1.4143,0,0,0,0,0,0,1.3621,1.3635,1.3756,1.3704,1.372,1.3758,1.3789,1.3795,1.3817,1.386,1.3867,1.383,1.3903,1.3916,1.3976,1.4003,1.3962,1.3966,1.4137,1.414,1.4142,1.4151,0,0,0,0,0,0,1.3617,1.3634,1.3656,1.3704,1.3723,1.3806,1.3791,1.3798,1.3825,1.3825,1.3876,1.3883,1.3903,1.3968,1.3981,1.4009,1.397,1.4135,1.4138,1.4142,1.4149,1.4154,1.4158,0,0,0,0,0,1.3611,1.3654,1.3657,1.3671,1.375,1.3808,1.3818,1.3839,1.3827,1.3851,1.3879,1.3882,1.3998,1.3974,1.3989,1.4019,1.4133,1.4137,1.4141,1.4147,1.4153,1.4158,0,0,0,0,0,0,1.3608,1.3661,1.3664,1.3724,1.3761,1.3809,1.3839,1.3845,1.3887,1.3885,1.391,1.3922,1.3982,1.4006,1.3979,1.4082,1.4065,1.4072,1.4064,1.407,1.4075,1.4068,1.3975,0,0,0,0,0,1.3614,1.3655,1.3699,1.3748,1.3767,1.38,1.3825,1.3839,1.3879,1.3895,1.3927,1.3967,1.4013,1.4043,1.4087,1.4152,1.4166,1.4181,1.4186,1.4189,1.4196,1.4236,1.4244,1.4156,1.4156,1.4156,0,0,1.3627,1.3661,1.3685,1.3748,1.3779,1.3823,1.3813,1.3859,1.3893,1.3902,1.3962,1.3987,1.4034,1.4098,1.4128,1.412,1.4223,1.4194,1.4197,1.4201,1.4241,1.4249,1.4257,1.4159,1.4158,1.4158,0,0,1.3674,1.3703,1.3748,1.3779,1.3826,1.3848,1.3859,1.3907,1.3924,1.3984,1.3994,1.4035,1.4112,1.4146,1.4174,1.4238,1.4243,1.4251,1.4277,1.4316,1.4323,1.4329,1.4355,1.4364,1.4257,1.4257,1.4257,0,1.3685,1.375,1.3771,1.3818,1.3847,1.3858,1.3906,1.3935,1.3994,1.4015,1.4005,1.4105,1.4137,1.4211,1.4227,1.4248,1.4264,1.4246,1.432,1.4326,1.4333,1.4358,1.4367,1.4258,1.4258,1.4258,1.4258,0,1.3763,1.3809,1.384,1.3897,1.3929,1.3976,1.4007,1.4038,1.4049,1.4073,1.4136,1.4175,1.4229,1.4248,1.4258,1.4325,1.4319,1.4314,1.4298,1.4342,1.4366,1.4375,1.4259,1.4259,1.4259,1.4259,0,0,1.3809,1.3879,1.3891,1.3918,1.3972,1.4008,1.4057,1.411,1.4138,1.4179,1.4223,1.4289,1.4287,1.4318,1.4333,1.4367,1.442,1.4359,1.4361,1.4372,1.4499,1.4504,1.4514,1.4423,1.4425,1.4427,1.4496,0,1.3865,1.3951,1.3973,1.4048,1.4092,1.4105,1.4148,1.4187,1.4212,1.4255,1.4282,1.433,1.4321,1.4341,1.4375,1.4406,1.4446,1.4401,1.4467,1.4469,1.4457,1.4526,1.4531,1.4595,1.4506,1.4507,1.4508,0,1.394,1.3984,1.4063,1.4114,1.4133,1.4172,1.4224,1.4264,1.431,1.4325,1.4362,1.4375,1.443,1.4409,1.4487,1.4456,1.4485,1.4504,1.4508,1.4516,1.4493,1.4539,1.4615,1.4626,1.4523,1.4522,1.4521,0,1.397,1.4048,1.4106,1.4129,1.4189,1.4217,1.4243,1.4288,1.4319,1.4365,1.4387,1.4439,1.4468,1.4509,1.4537,1.4519,1.4614,1.4595,1.4631,1.463,1.4651,1.465,1.4735,1.4666,1.4666,1.4665,1.4665,0,1.403,1.4079,1.4121,1.4157,1.4214,1.4239,1.4295,1.4322,1.4362,1.4406,1.442,1.4461,1.4494,1.4541,1.4563,1.4626,1.4638,1.4655,1.4661,1.4655,1.4653,1.4675,1.4672,1.4668,1.4667,1.4667,1.4666,0,1.4073,1.4102,1.4168,1.422,1.4235,1.4274,1.432,1.4357,1.4383,1.4439,1.4453,1.4494,1.455,1.4582,1.4652,1.4667,1.4738,1.4741,1.4723,1.4726,1.4761,1.4759,1.4865,1.4882,1.4799,1.48,1.4801,0,1.4111,1.4149,1.4206,1.4236,1.4263,1.4311,1.4344,1.4371,1.4405,1.4463,1.4494,1.455,1.4597,1.4687,1.4724,1.4779,1.4784,1.4818,1.4792,1.4787,1.4788,1.4787,1.4792,1.4823,1.4823,1.4824,1.4825,0,1.4175,1.4189,1.4235,1.4287,1.4326,1.4368,1.4411,1.4435,1.4471,1.4509,1.4566,1.4602,1.4675,1.4733,1.4791,1.4821,1.483,1.4832,1.4844,1.484,1.4829,1.4839,1.4737,1.483,1.4829,1.4829,1.4829,1.4828,1.4219,1.4255,1.4301,1.4353,1.4388,1.4428,1.4467,1.4498,1.4546,1.4607,1.4621,1.4682,1.4731,1.481,1.4842,1.4892,1.4886,1.4903,1.4907,1.4912,1.4915,1.4819,1.4903,1.4903,1.4902,1.4902,1.4902,0,1.4287,1.4318,1.4365,1.4425,1.4467,1.447,1.4519,1.4554,1.4608,1.4652,1.4698,1.4766,1.4823,1.4865,1.4924,1.4956,1.4962,1.4971,1.497,1.4978,1.4915,1.49,1.4965,1.4965,1.4965,1.4965,1.4965,1.4965,1.4327,1.4389,1.4409,1.449,1.4521,1.4581,1.4609,1.4647,1.4683,1.4758,1.4805,1.4832,1.4877,1.4939,1.4993,1.5004,1.5027,1.5035,1.5048,1.4988,1.4982,1.4975,1.4962,1.5039,1.5039,1.5107,1.5107,1.5108]},{"header":{"parameterUnit":"m.s-1","parameterCategory":1,"la1":30.2991,"la2":30.254,"lo1":-89.0895,"lo2":-89.0444,"dy":0.0017,"dx":0.0017,"nx":28,"ny":28,"refTime":"2024-03-28T21:00:00:Z","depth":0,"parameterNumber":3,"parameterNumberName":"V-component_of_WINDS"},"data":[0,0,0,0,0,0,0,0,0,0,0,0,0,0,0,0,0,0,0,0,0,0,0,0,0,0,0,0,0,0,0,0,0,0,0,0,0,0,0,0,0,0,0,0,0,0,0,0,0,0,0,0,0,0,0,0,0,0,-3.8297,-3.8298,0,-3.8326,-3.8327,-3.8327,-3.8371,-3.8372,-3.8373,-3.8374,-3.8398,-3.8398,-3.8398,0,0,0,0,0,0,0,0,0,0,0,0,0,-3.8278,-3.8278,-3.8297,-3.8298,-3.8298,-3.8326,-3.8327,-3.8327,-3.8371,-3.8372,-3.8373,-3.8374,-3.8398,-3.8398,-3.8398,0,0,0,0,0,0,0,0,0,0,0,0,0,-3.8294,-3.8278,-3.8297,-3.8324,-3.8326,-3.8326,-3.8327,-3.8327,-3.8371,-3.8372,-3.8373,-3.8375,-3.8399,-3.8398,-3.8398,-3.8373,0,0,-3.8398,-3.8398,0,0,0,0,0,0,0,0,-3.8293,-3.8295,-3.8319,-3.8322,-3.8325,-3.8347,-3.8329,-3.8342,-3.8371,-3.8354,-3.8374,-3.8375,-3.838,-3.8381,-3.8384,-3.8374,-3.8375,-3.8398,-3.8398,-3.8398,-3.8398,0,0,0,0,0,0,0,-3.8292,-3.8294,-3.8309,-3.832,-3.8323,-3.8333,-3.8337,-3.8332,-3.836,-3.8355,-3.8359,-3.8362,-3.8382,-3.8384,-3.8385,-3.8376,-3.8398,-3.8398,-3.8398,-3.8398,-3.835,-3.8349,0,0,0,0,0,0,-3.8288,-3.8293,-3.8308,-3.831,-3.8312,-3.8333,-3.8337,-3.8338,-3.836,-3.8364,-3.8361,-3.8364,-3.8384,-3.8385,-3.8386,-3.836,-3.8398,-3.8398,-3.8397,-3.8351,-3.8349,-3.8348,0,0,0,0,0,0,-3.8287,-3.8289,-3.8307,-3.8302,-3.8305,-3.8332,-3.8333,-3.8338,-3.8341,-3.8364,-3.8369,-3.8358,-3.8385,-3.8386,-3.8377,-3.8361,-3.8397,-3.8397,-3.8352,-3.835,-3.8349,-3.8305,0,0,0,0,0,0,-3.8286,-3.8288,-3.8279,-3.8302,-3.8305,-3.8298,-3.8332,-3.8338,-3.8341,-3.8345,-3.8363,-3.8367,-3.8386,-3.8377,-3.8377,-3.8361,-3.8397,-3.8354,-3.8351,-3.8349,-3.8308,-3.8302,-3.8297,0,0,0,0,0,-3.8285,-3.8264,-3.8278,-3.828,-3.8295,-3.8297,-3.8299,-3.8322,-3.834,-3.8331,-3.8346,-3.8366,-3.8363,-3.8376,-3.8376,-3.836,-3.8355,-3.8352,-3.835,-3.8311,-3.8304,-3.8297,0,0,0,0,0,0,-3.8236,-3.8267,-3.8284,-3.8269,-3.828,-3.8304,-3.8293,-3.8313,-3.8318,-3.8322,-3.8349,-3.8353,-3.8341,-3.8349,-3.8363,-3.8338,-3.8362,-3.8359,-3.8333,-3.8326,-3.8321,-3.8318,-3.8397,0,0,0,0,0,-3.8224,-3.8224,-3.8251,-3.8236,-3.8241,-3.8266,-3.8268,-3.8285,-3.8297,-3.8301,-3.8316,-3.8326,-3.8327,-3.8327,-3.8329,-3.8311,-3.8315,-3.83,-3.8294,-3.829,-3.8287,-3.8279,-3.8273,-3.8339,-3.8339,-3.8339,0,0,-3.8198,-3.8215,-3.8213,-3.8226,-3.8237,-3.8236,-3.827,-3.8266,-3.8266,-3.83,-3.8293,-3.8305,-3.8317,-3.8304,-3.8298,-3.8311,-3.827,-3.8286,-3.8282,-3.8282,-3.8276,-3.8269,-3.8264,-3.8338,-3.8338,-3.8338,0,0,-3.815,-3.8163,-3.8153,-3.8164,-3.8181,-3.8199,-3.8196,-3.8218,-3.8228,-3.8222,-3.8249,-3.8248,-3.8249,-3.8258,-3.8262,-3.8222,-3.8241,-3.8222,-3.8192,-3.8185,-3.8179,-3.8175,-3.8161,-3.8156,-3.8219,-3.8219,-3.8219,0,-3.8115,-3.8116,-3.8144,-3.8141,-3.8146,-3.8181,-3.8171,-3.8179,-3.8195,-3.8198,-3.8212,-3.8217,-3.8228,-3.8217,-3.8208,-3.821,-3.8209,-3.8219,-3.8178,-3.8174,-3.817,-3.8157,-3.8152,-3.8217,-3.8217,-3.8217,-3.8217,0,-3.8073,-3.8073,-3.8062,-3.808,-3.8084,-3.8077,-3.8104,-3.8105,-3.8123,-3.8139,-3.8134,-3.8149,-3.8156,-3.8155,-3.8171,-3.8148,-3.8155,-3.8173,-3.8198,-3.8161,-3.8149,-3.8145,-3.8213,-3.8214,-3.8215,-3.8215,0,0,-3.7991,-3.8028,-3.8024,-3.8033,-3.8056,-3.8056,-3.8052,-3.8061,-3.8062,-3.8072,-3.8069,-3.8071,-3.8089,-3.8094,-3.8112,-3.8106,-3.8074,-3.8125,-3.8126,-3.8116,-3.805,-3.8036,-3.803,-3.8088,-3.8087,-3.8086,-3.805,0,-3.7948,-3.7943,-3.7971,-3.7958,-3.7959,-3.7994,-3.799,-3.8003,-3.8019,-3.8022,-3.8038,-3.804,-3.8064,-3.8067,-3.8062,-3.8079,-3.8062,-3.8082,-3.8084,-3.8084,-3.808,-3.8024,-3.8009,-3.7973,-3.8045,-3.8044,-3.8044,0,-3.7896,-3.7907,-3.7896,-3.7922,-3.7924,-3.7919,-3.7932,-3.7934,-3.795,-3.7963,-3.797,-3.7993,-3.7989,-3.8014,-3.801,-3.8024,-3.8027,-3.8035,-3.8034,-3.8035,-3.8061,-3.8023,-3.7962,-3.7957,-3.8037,-3.8038,-3.8038,0,-3.7839,-3.7851,-3.7846,-3.7853,-3.7884,-3.788,-3.7893,-3.7911,-3.7915,-3.7926,-3.7929,-3.7938,-3.7943,-3.7949,-3.7973,-3.7989,-3.7967,-3.7993,-3.7977,-3.7976,-3.7969,-3.7969,-3.7908,-3.7972,-3.7972,-3.7972,-3.7972,0,-3.7787,-3.7779,-3.7822,-3.7818,-3.781,-3.7842,-3.7833,-3.7849,-3.7865,-3.7865,-3.7896,-3.7895,-3.7927,-3.793,-3.7949,-3.7944,-3.7945,-3.7955,-3.796,-3.7952,-3.7951,-3.7953,-3.7956,-3.797,-3.7971,-3.7971,-3.7971,0,-3.7721,-3.775,-3.7747,-3.7778,-3.7785,-3.7778,-3.7804,-3.7802,-3.7822,-3.7822,-3.7823,-3.7853,-3.7858,-3.7884,-3.7894,-3.7907,-3.7895,-3.7905,-3.789,-3.7893,-3.7876,-3.7877,-3.7813,-3.7807,-3.7875,-3.7874,-3.7873,0,-3.7686,-3.7681,-3.7713,-3.7716,-3.7728,-3.7733,-3.7739,-3.7771,-3.7776,-3.7797,-3.7792,-3.7801,-3.7809,-3.7816,-3.7838,-3.7847,-3.7857,-3.7835,-3.7858,-3.7852,-3.7857,-3.7857,-3.7857,-3.7829,-3.7828,-3.7827,-3.7827,0,-3.7621,-3.7636,-3.7645,-3.7659,-3.7667,-3.7679,-3.7693,-3.7694,-3.7729,-3.7733,-3.7741,-3.7748,-3.7761,-3.7769,-3.7782,-3.7794,-3.7816,-3.782,-3.7816,-3.7808,-3.7799,-3.7804,-3.7876,-3.782,-3.7821,-3.7821,-3.7822,-3.7822,-3.7569,-3.7568,-3.7591,-3.76,-3.7615,-3.7628,-3.7629,-3.765,-3.7657,-3.7671,-3.769,-3.7695,-3.7714,-3.7735,-3.7745,-3.7749,-3.7762,-3.7757,-3.7755,-3.7754,-3.775,-3.78,-3.7752,-3.7752,-3.7752,-3.7752,-3.7753,0,-3.7506,-3.7524,-3.7532,-3.7553,-3.756,-3.7584,-3.7601,-3.7606,-3.7611,-3.7628,-3.7637,-3.7646,-3.7655,-3.7679,-3.769,-3.7689,-3.77,-3.7691,-3.7691,-3.7694,-3.7738,-3.774,-3.7683,-3.7683,-3.7683,-3.7683,-3.7683,-3.7683,-3.7474,-3.7473,-3.7492,-3.7498,-3.7516,-3.7523,-3.7531,-3.7544,-3.7558,-3.7568,-3.7577,-3.7593,-3.7613,-3.7627,-3.7636,-3.7643,-3.7646,-3.7633,-3.7643,-3.7684,-3.769,-3.7697,-3.7699,-3.7634,-3.7634,-3.7599,-3.7599,-3.7598]}]]